• In Kazakhstan
  • List of Countries
  • For 7 days
  • Water Temperature
  • Satellite Maps
  • Weather Map
  • News
  • Weather Widgets
  • user-avatar
    Login

    Hourly Weather Konstantyna

    Today, 23 July, Tuesday

    Time Temperature Precipitation Wind Pressure Humidity
    00:00 +23°C° 0 mm 0 mps 713 mmHg 49%
    01:00 +23°C° 0 mm 0 mps 712 mmHg 49%
    02:00 +22°C° 0 mm 0 mps 712 mmHg 50%
    03:00 +22°C° 0 mm 0 mps 711 mmHg 50%
    04:00 +23°C° 0 mm 0 mps 712 mmHg 46%
    05:00 +24°C° 0 mm 0 mps 712 mmHg 42%
    06:00 +27°C° 0 mm 1 mps 713 mmHg 39%
    07:00 +29°C° 0 mm 1 mps 713 mmHg 33%
    08:00 +31°C° 0 mm 1 mps 713 mmHg 28%
    09:00 +33°C° 0 mm 1 mps 713 mmHg 22%
    10:00 +34°C° 0 mm 1 mps 713 mmHg 20%
    11:00 +36°C° 0 mm 1 mps 713 mmHg 17%
    12:00 +38°C° 0 mm 2 mps 713 mmHg 14%
    13:00 +38°C° 0 mm 2 mps 713 mmHg 14%
    14:00 +38°C° 0 mm 3 mps 712 mmHg 14%
    15:00 +39°C° 0 mm 3 mps 712 mmHg 13%
    16:00 +37°C° 0 mm 4 mps 712 mmHg 17%
    17:00 +35°C° 0 mm 4 mps 711 mmHg 21%
    18:00 +33°C° 0 mm 4 mps 711 mmHg 25%
    19:00 +31°C° 0 mm 3 mps 711 mmHg 29%
    20:00 +29°C° 0 mm 3 mps 711 mmHg 34%
    21:00 +27°C° 0 mm 2 mps 711 mmHg 39%
    22:00 +27°C° 0 mm 1 mps 711 mmHg 40%
    23:00 +26°C° 0 mm 1 mps 711 mmHg 41%

    Tomorrow, 24 July, Wednesday

    Time Temperature Precipitation Wind Pressure Humidity
    00:00 +24°C° 0 mm 0 mps 711 mmHg 42%
    01:00 +24°C° 0 mm 0 mps 710 mmHg 42%
    02:00 +25°C° 0 mm 1 mps 710 mmHg 42%
    03:00 +25°C° 0 mm 1 mps 709 mmHg 42%
    04:00 +26°C° 0 mm 1 mps 710 mmHg 39%
    05:00 +27°C° 0 mm 1 mps 710 mmHg 36%
    06:00 +28°C° 0 mm 1 mps 710 mmHg 33%
    07:00 +31°C° 0 mm 2 mps 711 mmHg 29%
    08:00 +34°C° 0 mm 3 mps 711 mmHg 24%
    09:00 +36°C° 0 mm 3 mps 712 mmHg 20%
    10:00 +37°C° 0 mm 3 mps 712 mmHg 18%
    11:00 +38°C° 0 mm 3 mps 712 mmHg 17%
    12:00 +39°C° 0 mm 3 mps 712 mmHg 15%
    13:00 +40°C° 0 mm 4 mps 711 mmHg 16%
    14:00 +40°C° 0 mm 5 mps 711 mmHg 16%
    15:00 +40°C° 0 mm 5 mps 710 mmHg 17%
    16:00 +39°C° 0 mm 5 mps 710 mmHg 20%
    17:00 +36°C° 0 mm 4 mps 710 mmHg 24%
    18:00 +34°C° 0 mm 4 mps 710 mmHg 27%
    19:00 +33°C° 0 mm 3 mps 710 mmHg 31%
    20:00 +30°C° 0 mm 2 mps 710 mmHg 35%
    21:00 +28°C° 0 mm 1 mps 710 mmHg 39%
    22:00 +28°C° 0 mm 1 mps 710 mmHg 39%
    23:00 +28°C° 0 mm 1 mps 710 mmHg 39%

    Day after tomorrow, 25 July, Thursday

    Time Temperature Precipitation Wind Pressure Humidity
    00:00 +27°C° 0 mm 1 mps 709 mmHg 39%
    01:00 +27°C° 0 mm 1 mps 709 mmHg 39%
    02:00 +27°C° 0 mm 1 mps 709 mmHg 39%
    03:00 +26°C° 0 mm 1 mps 709 mmHg 40%
    04:00 +28°C° 0 mm 1 mps 709 mmHg 37%
    05:00 +29°C° 0 mm 1 mps 709 mmHg 34%
    06:00 +30°C° 0 mm 1 mps 710 mmHg 31%
    07:00 +32°C° 0 mm 1 mps 710 mmHg 27%
    08:00 +35°C° 0 mm 2 mps 711 mmHg 22%
    09:00 +38°C° 0 mm 2 mps 711 mmHg 17%
    10:00 +39°C° 0 mm 2 mps 711 mmHg 15%
    11:00 +40°C° 0 mm 3 mps 711 mmHg 13%
    12:00 +42°C° 0 mm 3 mps 711 mmHg 11%
    13:00 +42°C° 0 mm 4 mps 710 mmHg 13%
    14:00 +41°C° 0 mm 5 mps 710 mmHg 14%
    15:00 +41°C° 0 mm 7 mps 710 mmHg 16%
    16:00 +40°C° 0 mm 6 mps 709 mmHg 19%
    17:00 +37°C° 0 mm 5 mps 709 mmHg 23%
    18:00 +35°C° 0 mm 3 mps 709 mmHg 26%
    19:00 +34°C° 0 mm 2 mps 709 mmHg 30%
    20:00 +31°C° 0 mm 1 mps 709 mmHg 34%
    21:00 +27°C° 0 mm 0 mps 709 mmHg 38%
    22:00 +27°C° 0 mm 0 mps 709 mmHg 39%
    23:00 +26°C° 0 mm 0 mps 709 mmHg 39%

    26 July, Friday

    Time Temperature Precipitation Wind Pressure Humidity
    00:00 +26°C° 0 mm 0 mps 709 mmHg 40%
    01:00 +25°C° 0 mm 0 mps 708 mmHg 40%
    02:00 +25°C° 0 mm 0 mps 708 mmHg 40%
    03:00 +25°C° 0 mm 0 mps 708 mmHg 40%
    04:00 +26°C° 0 mm 0 mps 708 mmHg 38%
    05:00 +27°C° 0 mm 0 mps 708 mmHg 35%
    06:00 +28°C° 0 mm 0 mps 709 mmHg 33%
    07:00 +32°C° 0 mm 1 mps 709 mmHg 28%
    08:00 +35°C° 0 mm 2 mps 709 mmHg 23%
    09:00 +37°C° 0 mm 3 mps 709 mmHg 19%
    10:00 +38°C° 0 mm 3 mps 709 mmHg 16%
    11:00 +41°C° 0 mm 4 mps 709 mmHg 14%
    12:00 +42°C° 0 mm 5 mps 709 mmHg 11%
    13:00 +42°C° 0 mm 5 mps 709 mmHg 11%
    14:00 +42°C° 0 mm 6 mps 709 mmHg 11%
    15:00 +42°C° 0 mm 6 mps 708 mmHg 10%
    16:00 +40°C° 0 mm 5 mps 708 mmHg 13%
    17:00 +39°C° 0 mm 5 mps 708 mmHg 16%
    18:00 +36°C° 0 mm 4 mps 708 mmHg 18%
    19:00 +35°C° 0 mm 3 mps 708 mmHg 21%
    20:00 +32°C° 0 mm 2 mps 708 mmHg 24%
    21:00 +30°C° 0 mm 1 mps 708 mmHg 27%
    22:00 +30°C° 0 mm 1 mps 707 mmHg 27%
    23:00 +30°C° 0 mm 1 mps 707 mmHg 26%

    27 July, Saturday

    Time Temperature Precipitation Wind Pressure Humidity
    00:00 +30°C° 0 mm 1 mps 707 mmHg 26%
    01:00 +29°C° 0 mm 1 mps 706 mmHg 27%
    02:00 +29°C° 0 mm 1 mps 706 mmHg 28%
    03:00 +28°C° 0 mm 1 mps 705 mmHg 29%
    04:00 +29°C° 0 mm 1 mps 705 mmHg 28%
    05:00 +30°C° 0 mm 1 mps 706 mmHg 28%
    06:00 +31°C° 0 mm 1 mps 706 mmHg 27%
    07:00 +32°C° 0 mm 2 mps 706 mmHg 24%
    08:00 +35°C° 0 mm 2 mps 706 mmHg 22%
    09:00 +37°C° 0 mm 3 mps 707 mmHg 20%
    10:00 +38°C° 0 mm 4 mps 707 mmHg 19%
    11:00 +40°C° 0 mm 5 mps 707 mmHg 18%
    12:00 +41°C° 0 mm 5 mps 707 mmHg 17%
    13:00 +40°C° 0 mm 6 mps 706 mmHg 21%
    14:00 +38°C° 0 mm 6 mps 706 mmHg 26%
    15:00 +36°C° 0 mm 6 mps 705 mmHg 30%
    16:00 +34°C° 0 mm 5 mps 705 mmHg 32%
    17:00 +32°C° 0 mm 5 mps 705 mmHg 33%
    18:00 +29°C° 0 mm 4 mps 705 mmHg 35%
    19:00 +28°C° 0 mm 3 mps 705 mmHg 40%
    20:00 +26°C° 0 mm 2 mps 706 mmHg 45%
    21:00 +25°C° 0 mm 1 mps 706 mmHg 50%
    22:00 +24°C° 0 mm 1 mps 706 mmHg 54%
    23:00 +23°C° 0 mm 1 mps 706 mmHg 58%

    28 July, Sunday

    Time Temperature Precipitation Wind Pressure Humidity
    00:00 +23°C° 0 mm 1 mps 706 mmHg 62%
    01:00 +22°C° 0 mm 1 mps 705 mmHg 66%
    02:00 +21°C° 0 mm 1 mps 705 mmHg 69%
    03:00 +21°C° 0 mm 1 mps 705 mmHg 73%
    04:00 +21°C° 0 mm 1 mps 705 mmHg 73%
    05:00 +20°C° 0 mm 0 mps 706 mmHg 72%
    06:00 +20°C° 0 mm 0 mps 706 mmHg 72%
    07:00 +24°C° 0 mm 1 mps 707 mmHg 63%
    08:00 +26°C° 0 mm 1 mps 707 mmHg 54%
    09:00 +28°C° 0 mm 2 mps 708 mmHg 45%
    10:00 +29°C° 0 mm 2 mps 708 mmHg 41%
    11:00 +31°C° 0 mm 3 mps 708 mmHg 36%
    12:00 +33°C° 0 mm 3 mps 708 mmHg 32%
    13:00 +33°C° 0 mm 4 mps 708 mmHg 34%
    14:00 +33°C° 0 mm 5 mps 708 mmHg 36%
    15:00 +34°C° 0 mm 5 mps 708 mmHg 38%
    16:00 +32°C° 0 mm 5 mps 707 mmHg 45%
    17:00 +29°C° 0 mm 4 mps 707 mmHg 52%
    18:00 +27°C° 0 mm 4 mps 707 mmHg 59%
    19:00 +26°C° 0 mm 3 mps 707 mmHg 66%
    20:00 +24°C° 0 mm 2 mps 708 mmHg 73%
    21:00 +23°C° 0 mm 1 mps 708 mmHg 79%
    22:00 +23°C° 0 mm 1 mps 708 mmHg 80%
    23:00 +22°C° 0 mm 1 mps 708 mmHg 80%
    Show more